Terug naar catalogus

VINASAT 2

ActiefCommunicatieGEO
NORAD 38332·PAYLOAD·🇻🇳 Vietnam

Gelanceerd May 15, 2012 vanaf Guiana Space Centre

Loading…

TLE

VersSource: Space-Track

Epoch: Sep 14, 2026, 21:16 UTC

1 38332U 12023B   26257.88638059 -.00000336  00000-0  00000-0 0  9999
2 38332   0.0438 329.1915 0002069 194.5131 281.1065  1.00272254 47554

Volg VINASAT 2 in realtime met AllMySat

Download on the App Store